1308009628861,3.41735
1308009688861,3.37222
1308009748861,3.39260
1308009808861,3.37002
1308009868861,3.38497
1308009928861,3.39877
1308009988861,3.41215
1308010048861,3.41023
1308010108861,3.38634
1308010168861,3.38070
1308010228861,3.38265
1308010288861,3.37687
1308010348861,3.40403
1308010408861,3.41227
1308010468861,3.41293
1308010528861,3.41655
1308010588861,3.42328
1308010648861,3.38693
1308010708861,3.41857
1308010768861,3.41288
1308010828861,3.39466
1308010888861,3.41654
1308010948861,3.37462
1308011008861,3.41207
1308011068861,3.37043
1308011128861,3.40183
1308011188861,3.41140
1308011248861,3.41247
1308011308861,3.39791
1308011368861,3.39550
1308011428861,3.43244
1308011488861,3.40017
1308011548861,3.40176
1308011608861,3.39736
1308011668861,3.40125
1308011728861,3.42653
1308011788861,3.40549
1308011848861,3.49191
1308011908861,3.48911
1308011968861,3.53860
1308012028861,3.55162
1308012088861,3.58890
1308012148861,3.56204
1308012208861,3.58122
1308012268861,3.56768
1308012328861,3.59251
1308012388861,3.58533
1308012448861,3.53680
1308012508861,3.51938
1308012568861,3.51878
1308012628861,3.50828
1308012688861,3.47000
1308012748861,3.48556
1308012808861,3.45599
1308012868861,3.43544
1308012928861,3.39656
1308012988861,3.42199
1308013048861,3.43279
1308013108861,3.42203
1308013168861,3.42717
1308013228871,3.43154
1308013288871,3.40202
1308013348871,3.40783
1308013408871,3.40700
1308013468871,3.37799
1308013528871,3.41874
1308013588871,3.40024
1308013648871,3.40762
1308013708871,3.37732
1308013768871,3.37252
1308013828871,3.39293
1308013888871,3.38429
1308013948871,3.40958
1308014008871,3.37043
1308014068871,3.39667
1308014128871,3.41027
1308014188871,3.40069
1308014248871,3.41880
1308014308871,3.38304
1308014368871,3.41949
1308014428871,3.40898
1308014488871,3.40288
1308014548871,3.39676
1308014608871,3.49904
1308014668871,3.39043
1308014728871,3.37874
1308014788871,3.41083
1308014848871,3.41330
1308014908871,3.38884
1308014968871,3.39340
1308015028871,3.39726
1308015088871,3.39244
1308015148871,3.36547
1308015208871,3.36492
1308015268871,3.38820
1308015328871,3.38046
1308015388871,3.42088
1308015448871,3.39129
1308015508871,3.38911
1308015568871,3.40068
1308015628871,3.39692
1308015688871,3.40271
1308015748871,3.42967
1308015808871,3.38033
1308015868871,3.36555
1308015928871,3.37850
1308015988871,3.37854
1308016048871,3.38976
1308016108871,3.39259
1308016168871,3.39120
1308016228871,3.41684
1308016288871,3.41349
1308016348871,3.38475
1308016408871,3.39838
1308016468871,3.39852
1308016528871,3.40620
1308016588871,3.40334
1308016648871,3.39946
1308016708871,3.38688
1308016768871,3.39233
1308016828881,3.39716
1308016888881,3.39626
1308016948881,3.39744
1308017008881,3.39910
1308017068881,3.38435
1308017128881,3.40279
1308017188881,3.40941
1308017248881,3.38446
1308017308881,3.42080
1308017368881,3.43717
1308017428881,3.41417
1308017488881,3.42103
1308017548881,3.42942
1308017608881,3.45572
1308017668881,3.43055
1308017728881,3.41382
1308017788881,3.37929
1308017848881,3.40964
1308017908881,3.41346
1308017968881,3.41326
1308018028881,3.37194
1308018088881,3.39144
1308018148881,3.35474
1308018208881,3.39864
1308018268881,3.40224
1308018328881,3.37645
1308018388881,3.37112
1308018448881,3.37211
1308018508881,3.37764
1308018568881,3.40217
1308018628881,3.38561
1308018688881,3.38560
1308018748881,3.39695
1308018808881,3.37357
1308018868881,3.37652
1308018928881,3.37541
1308018988881,3.37481
1308019048881,3.37805
1308019108881,3.38717
1308019168881,3.36374
1308019228881,3.38733
1308019288881,3.35367
1308019348881,3.37475
1308019408881,3.38860
1308019468881,3.40666
1308019528881,3.36875
1308019588881,3.36084
1308019648881,3.36935
1308019708881,3.38008
1308019768881,3.41148
1308019828881,3.37720
1308019888881,3.35528
1308019948881,3.37588
1308020008881,3.38302
1308020068881,3.35117
1308020128881,3.41175
1308020188881,3.36869
1308020248881,3.40234
1308020308881,3.38961
1308020368881,3.37634
1308020428891,3.38721
1308020488891,3.38024
1308020548891,3.38098
1308020608891,3.34450
1308020668891,3.36619
1308020728891,3.39375
1308020788891,3.35999
1308020848891,3.36642
1308020908891,3.38840
1308020968891,3.41589
1308021028891,3.35651
1308021088891,3.36774
1308021628891,3.40956
1308021688891,3.34835
1308021748891,3.38664
1308021808891,3.36331
1308021868891,3.35606
1308021928891,3.33995
1308021988891,3.35019
1308022048891,3.38392
1308022108891,3.40374
1308022168891,3.40657
1308022228891,3.40419
1308022288891,3.38536
1308022348891,3.33680
1308022408891,3.36677
1308022468891,3.38013
1308022528891,3.37828
1308022588891,3.39451
1308022648891,3.38954
1308022708891,3.37678
1308022768891,3.34911
1308022828891,3.40608
1308022888891,3.34588
1308022948891,3.38063
1308023008891,3.38257
1308023068891,3.37717
1308023128891,3.36255
1308023188891,3.37749
1308023248891,3.33914
1308023308891,3.37451
1308023368891,3.36034
1308023428891,3.39778
1308023488891,3.35366
1308023548891,3.35555
1308023608891,3.36793
1308023668891,3.38396
1308023728891,3.37259
1308023788891,3.36930
1308023848891,3.37141
1308023908891,3.33935
1308023968891,3.36952
1308024028900,3.36426
1308024088900,3.36786
1308024148900,3.34764
1308024208900,3.35076
1308024268900,3.37221
1308024328900,3.36197
1308024388900,3.35710
1308024448900,3.38221
1308024508900,3.36238
1308024568900,3.38927
1308024628900,3.37239
1308024688900,3.40113
1308024748900,3.42102
1308024808900,3.36598
1308024868900,3.41056
1308024928900,3.38629
1308024988900,3.41103
1308025048900,3.36414
1308025108900,3.37999
1308025168900,3.40004
1308025228900,3.37754
1308025288900,3.39143
1308025348900,3.38334
1308025408900,3.39665
1308025468900,3.39441
1308025528900,3.39979
1308025588900,3.34692
1308025648900,3.41214
1308025708900,3.39763
1308025768900,3.37371
1308025828900,3.37786
1308025888900,3.40606
1308025948900,3.39037
1308026008900,3.35881
1308026068900,3.39227
1308026128900,3.37060
1308026188900,3.37373
1308026248900,3.39953
1308026308900,3.35823
1308026368900,3.35932
1308026428900,3.38004
1308026488900,3.36447
1308026548900,3.36098
1308026608900,3.36119
1308026668900,3.36961
1308026728900,3.36917
1308026788900,3.36501
1308026848900,3.37675
1308026908900,3.39769
1308026968900,3.40304
1308027028900,3.35576
1308027088900,3.38218
1308027148900,3.36157
1308027208900,3.40450
1308027268900,3.38141
1308027328900,3.36024
1308027388900,3.38935
1308027448900,3.37500
1308027508900,3.37862
1308027568900,3.36489
1308027628909,3.35776
1308027688909,3.38861
1308027748909,3.35616
1308027808909,3.36057
1308027868909,3.35960
1308027928909,3.39599
1308027988909,3.38363
1308028048909,3.36381
1308028108909,3.36018
1308028168909,3.37107
1308028228909,3.36137
1308028288909,3.36875
1308028348909,3.39765
1308028408909,3.36311
1308028468909,3.38892
1308028528909,3.34253
1308028588909,3.37791
1308028648909,3.35027
1308028708909,3.35835
1308028768909,3.38784
1308028828909,3.36679
1308028888909,3.40009
1308028948909,3.38826
1308029008909,3.36804
1308029068909,3.38297
1308029128909,3.39649
1308029188909,3.37132
1308029248909,3.36870
1308029308909,3.35408
1308029368909,3.37805
1308029428909,3.36161
1308029488909,3.37545
1308029548909,3.37577
1308029608909,3.32860
1308029668909,3.36757
1308029728909,3.36661
1308029788909,3.34410
1308029848909,3.38485
1308029908909,3.35643
1308029968909,3.39460
1308030028909,3.35776
1308030088909,3.35288
1308030148909,3.36737
1308030208909,3.37859
1308030268909,3.40229
1308030328909,3.35909
1308030388909,3.37779
1308030448909,3.35348
1308030508909,3.38852
1308030568909,3.37148
1308030628909,3.37158
1308030688909,3.37958
1308030748909,3.36841
1308030808909,3.35893
1308030868909,3.36805
1308030928909,3.37689
1308030988909,3.40735
1308031048909,3.36504
1308031108909,3.37701
1308031168909,3.40154
1308031228918,3.38508
1308031288918,3.37635
1308031348918,3.33951
1308031408918,3.35309
1308031468918,3.38287
1308031528918,3.39342
1308031588918,3.35138
1308031648918,3.36622
1308031708918,3.37611
1308031768918,3.34707
1308031828918,3.35722
1308031888918,3.37361
1308031948918,3.34593
1308032008918,3.36409
1308032068918,3.38441
1308032128918,3.34340
1308032188918,3.35947
1308032248918,3.35863
1308032308918,3.38645
1308032368918,3.35218
1308032428918,3.38973
1308032488918,3.32778
1308032548918,3.35642
1308032608918,3.34646
1308032668918,3.32524
1308032728918,3.36454
1308032788918,3.36018
1308032848918,3.37819
1308032908918,3.37190
1308032968918,3.35801
1308033028918,3.35335
1308033088918,3.34360
1308033148918,3.34019
1308033208918,3.35530
1308033268918,3.36320
1308033328918,3.34605
1308033388918,3.35786
1308033448918,3.37147
1308033508918,3.35121
1308033568918,3.37875
1308033628918,3.34107
1308033688918,3.34421
1308033748918,3.37783
1308033808918,3.38504
1308033868918,3.35743
1308033928918,3.34869
1308033988918,3.36651
1308034048918,3.36365
1308034108918,3.36299
1308034168918,3.34962
1308034228918,3.40942
1308034288918,3.37883
1308034348918,3.37597
1308034408918,3.37520
1308034468918,3.37230
1308034528918,3.35291
1308034588918,3.37929
1308034648918,3.36927
1308034708918,3.38334
1308034768918,3.37191
1308034828927,3.35910
1308034888927,3.36982
1308034948927,3.35360
1308035008927,3.36335
1308035068927,3.35600
1308035128927,3.35544
1308035188927,3.34994
1308035248927,3.33056
1308035308927,3.35169
1308035368927,3.35142
1308035428927,3.36624
1308035488927,3.36284
1308035548927,3.35740
1308035608927,3.35088
1308035668927,3.36054
1308035728927,3.37850
1308035788927,3.33027
1308035848927,3.34084
1308035908927,3.35448
1308035968927,3.34663
1308036028927,3.34529
1308036088927,3.32433
1308036148927,3.33004
1308036208927,3.35560
1308036268927,3.35759
1308036328927,3.37090
1308036388927,3.35931
1308036448927,3.35441
1308036508927,3.34356
1308036568927,3.36449
1308036628927,3.33872
1308036688927,3.35638
1308036748927,3.35765
1308036808927,3.36007
1308036868927,3.33811
1308036928927,3.31346
1308036988927,3.34651
1308037048927,3.34593
1308037108927,3.37086
1308037168927,3.36852
1308037228927,3.35768
1308037288927,3.34513
1308037348927,3.35949
1308037408927,3.36328
1308037468927,3.33190
1308037528927,3.35733
1308037588927,3.31897
1308037648927,3.33895
1308037708927,3.34028
1308037768927,3.34984
1308037828927,3.34279
1308037888927,3.35003
1308037948927,3.35307
1308038008927,3.35049
1308038068927,3.35242
1308038128927,3.35582
1308038188927,3.33296
1308038248927,3.38580
1308038308927,3.34757
1308038368927,3.35945
1308038428936,3.36020
1308038488936,3.33905
1308038548936,3.35062
1308038608936,3.35777
1308038668936,3.35140
1308038728936,3.33871
1308038788936,3.36957
1308038848936,3.36700
1308038908936,3.34579
1308038968936,3.36853
1308039028936,3.34395
1308039088936,3.37853
1308039148936,3.34041
1308039208936,3.36647
1308039268936,3.36635
1308039328936,3.33475
1308039388936,3.32586
1308039448936,3.34766
1308039508936,3.36409
1308039568936,3.34825
1308039628936,3.38704
1308039688936,3.36631
1308039748936,3.33398
1308039808936,3.34343
1308039868936,3.33834
1308039928936,3.36053
1308039988936,3.34877
1308040048936,3.33456
1308040108936,3.34237
1308040168936,3.34266
1308040228936,3.35771
1308040288936,3.37369
1308040348936,3.36996
1308040408936,3.39412
1308040468936,3.38765
1308040528936,3.39772
1308040588936,3.36004
1308040648936,3.36187
1308040708936,3.38520
1308040768936,3.34960
1308040828936,3.33403
1308040888936,3.38657
1308040948936,3.35438
1308041008936,3.34941
1308041068936,3.35073
1308041128936,3.34778
1308041188936,3.37078
1308041248936,3.40514
1308041308936,3.32847
1308041368936,3.37335
1308041428936,3.36924
1308041488936,3.36783
1308041548936,3.36793
1308041608936,3.35487
1308041668936,3.33306
1308041728936,3.37099
1308041788936,3.35901
1308041848936,3.37207
1308041908936,3.34955
1308041968936,3.38800
1308042028945,3.37467
1308042088945,3.38828
1308042148945,3.34075
1308042208945,3.35286
1308042268945,3.37862
1308042328945,3.35511
1308042388945,3.33236
1308042448945,3.44769
1308042508945,3.38058
1308042568945,3.33594
1308042628945,3.35266
1308042688945,3.38317
1308042748945,3.40246
1308042808945,3.36060
1308042868945,3.37099
1308042928945,3.38879
1308042988945,3.35979
1308043048945,3.34140
1308043108945,3.35294
1308043168945,3.36913
1308043228945,3.36696
1308043288945,3.37637
1308043348945,3.37622
1308043408945,3.34290
1308043468945,3.36653
1308043528945,3.36144
1308043588945,3.35440
1308043648945,3.40479
1308043708945,3.34818
1308043768945,3.36631
1308043828945,3.39153
1308043888945,3.37504
1308043948945,3.34573
1308044008945,3.33108
1308044068945,3.36525
1308044128945,3.35215
1308044188945,3.36082
1308044248945,3.39240
1308044308945,3.40273
1308044368945,3.36490
1308044428945,3.39268
1308044488945,3.35804
1308044548945,3.37859
1308044608945,3.36915
1308044668945,3.37115
1308044728945,3.37416
1308044788945,3.38940
1308044848945,3.35547
1308044908945,3.36569
1308044968945,3.39910
1308045028945,3.32739
1308045088945,3.36302
1308045148945,3.38277
1308045208945,3.37967
1308045268945,3.37343
1308045328945,3.37271
1308045388945,3.36061
1308045448945,3.40560
1308045508945,3.39885
1308045568945,3.39699
1308045628954,3.34811
1308045688954,3.37407
1308045748954,3.35824
1308045808954,3.36099
1308045868954,3.39859
1308045928954,3.36179
1308045988954,3.34753
1308046048954,3.37590
1308046108954,3.36350
1308046168954,3.34470
1308046228954,3.36746
1308046288954,3.37316
1308046348954,3.37930
1308046408954,3.38533
1308046468954,3.35215
1308046528954,3.43207
1308046588954,3.38803
1308046648954,3.38553
1308046708954,3.37719
1308046768954,3.38800
1308046828954,3.38061
1308046888954,3.39189
1308046948954,3.41856
1308047008954,3.40147
1308047068954,3.41127
1308047128954,3.40060
1308047188954,3.42587
1308047248954,3.39579
1308047308954,3.40193
1308047368954,3.41779
1308047428954,3.39368
1308047488954,3.40025
1308047548954,3.40458
1308047608954,3.39718
1308047668954,3.38952
1308047728954,3.41825
1308047788954,3.40039
1308047848954,3.39957
1308047908954,3.38653
1308047968954,3.38135
1308048028954,3.41887
1308048088954,3.39701
1308048148954,3.43391
1308048208954,3.42015
1308048268954,3.41145
1308048328954,3.42627
1308048388954,3.42026
1308048448954,3.44180
1308048508954,3.37053
1308048568954,3.41704
1308048628954,3.42423
1308048688954,3.41908
1308048748954,3.40134
1308048808954,3.42576
1308048868954,3.45528
1308048928954,3.39842
1308048988954,3.40056
1308049048954,3.39579
1308049108954,3.40536
1308049168954,3.39004
1308049228963,3.41130
1308049288963,3.40022
1308049348963,3.42040
1308049408963,3.39972
1308049468963,3.42470
1308049528963,3.39257
1308049588963,3.41958
1308049648963,3.38712
1308049708963,3.43492
1308049768963,3.42030
1308049828963,3.43346
1308049888963,3.44402
1308049948963,3.46093
1308050008963,3.43537
1308050068963,3.44387
1308050128963,3.45592
1308050188963,3.51118
1308050248963,3.58790
1308050308963,3.56763
1308050368963,3.63608
1308050428963,3.63802
1308050488963,3.63034
1308050548963,3.63830
1308050608963,3.62399
1308050668963,3.70438
1308050728963,3.66834
1308050788963,3.67413
1308050848963,3.64847
1308050908963,3.66430
1308050968963,3.67037
1308051028963,3.67199
1308051088963,3.63355
1308051148963,3.64777
1308051208963,3.61871
1308051268963,3.59497
1308051328963,3.54929
1308051388963,3.52743
1308051448963,3.51004
1308051508963,3.50482
1308051568963,3.49203
1308051628963,3.46929
1308051688963,3.44104
1308051748963,3.46493
1308051808963,3.46208
1308051868963,3.43610
1308051928963,3.42460
1308051988963,3.43057
1308052048963,3.42439
1308052108963,3.44761
1308052168963,3.43617
1308052228963,3.40435
1308052288963,3.41832
1308052348963,3.44844
1308052408963,3.41869
1308052468963,3.46143
1308052528963,3.43590
1308052588963,3.40253
1308052648963,3.41160
1308052708963,3.39958
1308052768963,3.42514
1308052828972,3.45094
1308052888972,3.42808
1308052948972,3.45744
1308053008972,3.41819
1308053068972,3.43895
1308053128972,3.42636
1308053188972,3.43762
1308053248972,3.42636
1308053308972,3.43396
1308053368972,3.44046
1308053428972,3.43974
1308053488972,3.43265
1308053548972,3.42781
1308053608972,3.42278
1308053668972,3.40734
1308053728972,3.42516
1308053788972,3.39041
1308053848972,3.40157
1308053908972,3.41528
1308053968972,3.40447
1308054028972,3.45845
1308054088972,3.41441
1308054148972,3.45794
1308054208972,3.44383
1308054268972,3.44741
1308054328972,3.46393
1308054388972,3.42346
1308054448972,3.42717
1308054508972,3.39813
1308054568972,3.43730
1308054628972,3.44661
1308054688972,3.44633
1308054748972,3.40614
1308054808972,3.42015
1308054868972,3.43443
1308054928972,3.41261
1308054988972,3.42834
1308055048972,3.44671
1308055108972,3.43231
1308055168972,3.45226
1308055228972,3.43650
1308055288972,3.44015
1308055348972,3.41034
1308055408972,3.45662
1308055468972,3.43997
1308055528972,3.45150
1308055588972,3.42744
1308055648972,3.45031
1308055708972,3.43655
1308055768972,3.43491
1308055828972,3.40608
1308055888972,3.45336
1308055948972,3.44011
1308056008972,3.44926
1308056068972,3.44688
1308056128972,3.42810
1308056188972,3.43889
1308056248972,3.44431
1308056308972,3.44742
1308056368972,3.46073
1308056428981,3.47677
1308056488981,3.45293
1308056548981,3.46221
1308056608981,3.45648
1308056668981,3.46971
1308056728981,3.42929
1308056788981,3.42116
1308056848981,3.45413
1308056908981,3.44407
1308056968981,3.47600
1308057028981,3.44761
1308057088981,3.45152
1308057148981,3.46360
1308057208981,3.46882
1308057268981,3.45287
1308057328981,3.46570
1308057388981,3.42359
1308057448981,3.45797
1308057508981,3.44969
1308057568981,3.43753
1308057628981,3.45276
1308057688981,3.46645
1308057748981,3.49010
1308057808981,3.47966
1308057868981,3.50898
1308057928981,3.46944
1308057988981,3.51708
1308058048981,3.51192
1308058108981,3.50716
1308058168981,3.50763
1308058228981,3.48715
1308058288981,3.48747
1308058348981,3.47544
1308058408981,3.47394
1308058468981,3.46053
1308058528981,3.49678
1308058588981,3.48063
1308058648981,3.47785
1308058708981,3.47561
1308058768981,3.50200
1308058828981,3.48468
1308058888981,3.45988
1308058948981,3.46289
1308059008981,3.45521
1308059068981,3.47648
1308059128981,3.43162
1308059188981,3.47441
1308059248981,3.46644
1308059308981,3.46337
1308059368981,3.47374
1308059428981,3.45855
1308059488981,3.46553
1308059548981,3.47649
1308059608981,3.46893
1308059668981,3.42996
1308059728981,3.46816
1308059788981,3.47410
1308059848981,3.44137
1308059908981,3.45439
1308059968981,3.47535
1308060028990,3.47313
1308060088990,3.44483
1308060148990,3.43291
1308060208990,3.46118
1308060268990,3.45072
1308060328990,3.50648
1308060388990,3.45648
1308060448990,3.44582
1308060508990,3.46127
1308060568990,3.44212
1308060628990,3.46575
1308060688990,3.48024
1308060748990,3.44819
1308060808990,3.47565
1308060868990,3.45310
1308060928990,3.42852
1308060988990,3.49253
1308061048990,3.46640
1308061108990,3.45727
1308061168990,3.50134
1308061228990,3.44936
1308061288990,3.46069
1308061348990,3.43699
1308061408990,3.46681
1308061468990,3.45240
1308061528990,3.44312
1308061588990,3.45943
1308061648990,3.48005
1308061708990,3.44294
1308061768990,3.49365
1308061828990,3.47475
1308061888990,3.46159
1308061948990,3.46876
1308062008990,3.49323
1308062068990,3.48234
1308062128990,3.45514
1308062188990,3.51135
1308062248990,3.48145
1308062308990,3.45634
1308062368990,3.48142
1308062428990,3.49034
1308062488990,3.46574
1308062548990,3.48984
1308062608990,3.47820
1308062668990,3.47818
1308062728990,3.44162
1308062788990,3.50088
1308062848990,3.46396
1308062908990,3.47678
1308062968990,3.43998
1308063028990,3.48905
1308063088990,3.47377
1308063148990,3.45585
1308063208990,3.49032
1308063268990,3.48991
1308063328990,3.46310
1308063388990,3.49319
1308063448990,3.50389
1308063508990,3.47849
1308063568990,3.48188
1308063628999,3.46615
1308063688999,3.48578
1308063748999,3.47582
1308063808999,3.49026
1308063868999,3.48267
1308063928999,3.48886
1308063988999,3.48000
1308064048999,3.46462
1308064108999,3.46452
1308064168999,3.44993
1308064228999,3.47455
1308064288999,3.48171
1308064348999,3.46961
1308064408999,3.49638
1308064468999,3.45826
1308064528999,3.49880
1308064588999,3.47726
1308064648999,3.48523
1308064708999,3.45962
1308064768999,3.49911
1308064828999,3.46129
1308064888999,3.47062
1308064948999,3.47475
1308065008999,3.48913
1308065068999,3.46253
1308065128999,3.47936
1308065188999,3.49190
1308065248999,3.49922
1308065308999,3.46353
1308065368999,3.48253
1308065428999,3.48035
1308065488999,3.46208
1308065548999,3.50409
1308065608999,3.47547
1308065668999,3.49518
1308065728999,3.48801
1308065788999,3.51758
1308065848999,3.48606
1308065908999,3.49209
1308065968999,3.47532
1308066028999,3.49460
1308066088999,3.48532
1308066148999,3.49100
1308066208999,3.47112
1308066268999,3.50319
1308066328999,3.48581
1308066388999,3.47905
1308066448999,3.48492
1308066508999,3.50213
1308066568999,3.50110
1308066628999,3.50591
1308066688999,3.47713
1308066748999,3.51863
1308066808999,3.49237
1308066868999,3.52723
1308066928999,3.48442
1308066988999,3.49641
1308067048999,3.50354
1308067108999,3.50749
1308067168999,3.48529
1308067229008,3.49302
1308067289008,3.50000
1308067349008,3.48332
1308067409008,3.51807
1308067469008,3.52663
1308067529008,3.51546
1308067589008,3.50328
1308067649008,3.52713
1308067709008,3.48637
1308067769008,3.51663
1308067829008,3.49582
1308067889008,3.48391
1308067949008,3.48273
1308068009008,3.46685
1308068069008,3.50623
1308068129008,3.46905
1308068189008,3.47547
1308068249008,3.48716
1308068309008,3.48240
1308068369008,3.49878
1308068429008,3.51776
1308068489008,3.48411
1308068549008,3.49674
1308068609008,3.51174
1308068669008,3.49597
1308068729008,3.52822
1308068789008,3.50569
1308068849008,3.50301
1308068909008,3.54278
1308068969008,3.47179
1308069029008,3.48926
1308069089008,3.54132
1308069149008,3.50878
1308069209008,3.50014
1308069269008,3.49944
1308069329008,3.51833
1308069389008,3.50319
1308069449008,3.52067
1308069509008,3.50478
1308069569008,3.53242
1308069629008,3.52532
1308069689008,3.50189
1308069749008,3.51349
1308069809008,3.53094
1308069869008,3.50036
1308069929008,3.53547
1308069989008,3.49111
1308070049008,3.49375
1308070109008,3.52361
1308070169008,3.51756
1308070229008,3.50105
1308070289008,3.49133
1308070349008,3.51099
1308070409008,3.52647
1308070469008,3.50498
1308070529008,3.50621
1308070589008,3.51780
1308070649008,3.51538
1308070709008,3.50265
1308070769008,3.49684
1308070829018,3.53181
1308070889018,3.52963
1308070949018,3.53041
1308071009018,3.49143
1308071069018,3.50793
1308071129018,3.50086
1308071189018,3.53578
1308071249018,3.50631
1308071309018,3.51485
1308071369018,3.52018
1308071429018,3.48040
1308071489018,3.52386
1308071549018,3.51822
1308071609018,3.52482
1308071669018,3.52169
1308071729018,3.48995
1308071789018,3.51076
1308071849018,3.53207
1308071909018,3.49681
1308071969018,3.52053
1308072029018,3.51848
1308072089018,3.50871
1308072149018,3.49135
1308072209018,3.52367
1308072269018,3.52237
1308072329018,3.56985
1308072389018,3.51847
1308072449018,3.52020
1308072509018,3.53375
1308072569018,3.52992
1308072629018,3.52434
1308072689018,3.50281
1308072749018,3.51791
1308072809018,3.53767
1308072869018,3.48399
1308072929018,3.49553
1308072989018,3.47704
1308073049018,3.51927
1308073109018,3.50981
1308073169018,3.50949
1308073229018,3.46523
1308073289018,3.50445
1308073349018,3.51161
1308073409018,3.50786
1308073469018,3.52052
1308073529018,3.48140
1308073589018,3.51855
1308073649018,3.51445
1308073709018,3.52422
1308073769018,3.48075
1308073829018,3.48714
1308073889018,3.52594
1308073949018,3.50015
1308074009018,3.52971
1308074069018,3.49346
1308074129018,3.48901
1308074189018,3.48428
1308074249018,3.48392
1308074309018,3.50470
1308074369018,3.49498
1308074429028,3.51581
1308074489028,3.48315
1308074549028,3.52269
1308074609028,3.49928
1308074669028,3.53301
1308074729028,3.48193
1308074789028,3.49335
1308074849028,3.49075
1308074909028,3.52871
1308074969028,3.50066
1308075029028,3.50519
1308075089028,3.46657
1308075149028,3.53784
1308075209028,3.52323
1308075269028,3.47595
1308075329028,3.51950
1308075389028,3.49277
1308075449028,3.52151